Location: Labarr�re
(43.1500°N, 0.9500°E)
Time: 01:59:15
(UTC+00:00)

Daily predictions for brighter satellites

Satellite Brightness Start Highest point End
(mag) Time Altitude Azimuth Time Altitude Azimuth Time Altitude Azimuth
CZ-4C R/B 3.2 03:48:11 63° ENE 03:48:11 63° ENE 03:56:03 10° SE
BREEZE-M DEB (TANK) 4.4 04:06:11 61° SSW 04:07:51 76° SSE 04:12:31 10° ENE
SL-16 R/B 3.8 04:21:42 23° S 04:21:42 23° S 04:23:47 10° SSE
ATLAS 5 CENTAUR R/B 4.3 04:24:32 11° NNE 04:24:32 11° NNE 04:24:51 10° NNE
Meteor 2-11 Rocket 4.3 04:28:11 10° S 04:34:16 88° E 04:40:26 10° N
ALOS 3.9 04:41:34 10° NNE 04:45:49 33° E 04:50:01 10° SSE
Meteor 1-27 Rocket 4.1 04:49:19 51° SW 04:49:19 51° SW 04:53:57 10° S
Cosmos 2034 Rocket 3.9 04:45:01 10° SSW 04:51:17 70° W 04:57:40 10° N
USA 234 3.2 04:47:43 10° NE 04:54:09 64° NNW 04:55:39 51° W
Cosmos 1140 Rocket 3.3 04:54:39 75° W 04:54:50 76° WSW 05:00:03 10° SSE
Cosmos 407 Rocket 4.1 04:57:46 42° SW 04:57:46 42° SW 05:01:39 10° S
SKYMED 2 3.9 04:54:51 10° SSE 04:59:08 65° ENE 05:00:50 35° N
Cosmos 2263 Rocket 2.4 04:56:49 10° SSW 05:02:21 69° ESE 05:07:53 10° NNE
Cosmos 1023 Rocket 4.4 05:05:28 58° W 05:05:44 59° WSW 05:10:53 10° S
STARLINK 1050 4.1 05:06:33 44° NE 05:06:33 44° NE 05:09:37 10° ESE
Cosmos 724 4.5 05:06:45 48° WNW 05:07:12 49° NW 05:12:58 10° NNE
STARLINK 1055 3.9 05:09:26 47° NE 05:09:26 47° NE 05:12:38 10° ESE
Cosmos 1461 2.9 05:10:13 65° SW 05:10:13 65° SW 05:14:30 10° SSE
STARLINK 1044 4.2 05:11:48 36° E 05:11:48 36° E 05:13:48 10° ESE
STARLINK 1022 3.8 05:11:50 50° NE 05:11:50 50° NE 05:15:10 10° ESE
Cosmos 1484 Rocket 3.6 05:09:05 10° N 05:14:31 36° SSW 05:16:53 10° SSW
Okean 1-7 3.1 05:10:51 26° N 05:13:21 81° E 05:17:44 10° S
STARLINK 1042 3.6 05:15:06 53° NNE 05:15:09 53° NNE 05:18:35 10° ESE
Helios 1A Rocket 4.3 05:11:45 10° NNE 05:15:34 39° E 05:19:20 10° S
Cosmos 1092 Rocket 3.8 05:09:55 10° N 05:16:06 78° W 05:22:13 10° S
STARLINK 1056 3.5 05:18:03 55° NNE 05:18:15 56° NNE 05:21:41 10° ESE
Cosmos 2227 4.1 05:13:35 10° SW 05:19:18 67° WNW 05:25:04 10° NNE
Cosmos 2297 Rocket 4.4 05:23:16 10° NNW 05:23:16 10° NNW 05:23:18 10° NNW
Starlink Launch 2 leader 4.1 05:22:20 30° SE 05:22:20 30° SE 05:23:45 10° SE
STARLINK 1054 3.4 05:21:01 56° N 05:21:20 59° NNE 05:24:47 10° ESE
PSLV R/B 3.8 05:18:14 10° N 05:22:19 63° WNW 05:26:23 10° SSW
STARLINK 1062 3.3 05:23:49 56° N 05:24:15 62° NNE 05:27:43 10° ESE
Starlink Launch 2 trailer 3.9 05:25:53 33° SE 05:25:53 33° SE 05:27:25 10° SE
Cosmos 2227 Rocket 4.3 05:27:28 11° NNW 05:27:28 11° NNW 05:27:45 10° NNW
STARLINK 1053 3.3 05:26:59 54° NNW 05:27:33 66° NNE 05:31:02 10° ESE
FENGYUN 3A 3.7 05:22:10 10° NNE 05:27:36 81° ESE 05:32:58 10° SSW
GEOS 3 Rocket 3.7 05:22:52 10° SSE 05:27:50 53° WSW 05:29:46 34° WNW
Cosmos 2084 Rocket 4.1 05:28:32 37° WSW 05:28:46 37° WSW 05:32:49 10° S
STARLINK 1061 3.3 05:29:40 52° NNW 05:30:21 70° NE 05:33:50 10° ESE
SWAS 4.4 05:27:27 10° SSW 05:31:46 87° WNW 05:36:07 10° NNE
STARLINK 1067 3.2 05:32:38 49° NW 05:33:26 74° NE 05:36:57 10° ESE
CZ-4B R/B 3.6 05:27:57 10° NNE 05:33:33 68° ESE 05:39:11 10° S
CZ-4C R/B 3.7 05:33:25 27° WNW 05:36:21 35° WSW 05:43:37 10° S
STARLINK 1058 3.1 05:35:32 46° NW 05:36:27 78° NE 05:39:57 10° ESE
STARLINK 1043 3.1 05:38:28 43° NW 05:39:30 83° NNE 05:43:02 10° SE
STARLINK 1065 3.1 05:41:21 40° NW 05:42:31 87° NE 05:46:02 10° SE
FALCON 9 DEB 3.3 05:44:21 33° SSW 05:44:21 33° SSW 05:46:08 10° SSE
USA 116 4.1 05:41:10 10° S 05:45:30 67° W 05:50:24 10° NNW
STARLINK 1063 3.1 05:44:24 37° NW 05:45:42 88° SW 05:49:12 10° SE
COSMO-SKYMED 1 3.1 05:43:10 10° SSW 05:47:12 37° W 05:49:21 23° NW
Cosmos 1943 3.2 05:43:14 18° NW 05:47:18 58° WSW 05:52:47 10° S
Meteor 1-25 Rocket 4.4 05:42:39 10° SSW 05:48:03 49° WNW 05:53:34 10° N
METEOR-M 4.1 05:42:59 10° N 05:48:18 65° WNW 05:53:35 10° SSW
FALCON 9 R/B 4.5 05:41:33 15° WSW 05:48:35 59° S 06:20:16 10° ESE
Cosmos 1346 Rocket 2.6 05:44:44 10° S 05:48:36 84° WNW 05:52:30 10° N
STARLINK 1064 3.1 05:47:15 34° WNW 05:48:39 83° SW 05:52:10 10° SE
Cosmos 2221 Rocket 3.6 05:44:18 10° N 05:48:43 82° E 05:53:08 10° S
PAYLOAD B 4.2 05:45:55 10° N 05:51:23 66° WNW 05:56:51 10° SSW
STARLINK 1041 3.1 05:50:12 32° WNW 05:51:43 78° SW 05:55:14 10° SE
Meteor 1-14 Rocket 4.3 05:45:58 10° SSW 05:51:52 67° WNW 05:57:50 10° N
H-2A R/B 4.3 05:49:49 10° NNE 05:53:20 38° E 05:56:52 10° SSE
STARLINK 1038 3.1 05:53:11 29° WNW 05:54:49 74° SW 05:58:19 10° SE
SJ-7 4.3 05:53:16 10° NNE 05:57:18 90° NE 06:01:17 10° SSW
STARLINK 1046 3.2 05:56:09 27° WNW 05:57:54 69° SW 06:01:24 10° SE
Okean O Rocket 1.6 05:56:11 10° N 06:00:31 59° WNW 06:04:51 10° SSW
STARLINK 1039 3.2 05:59:07 25° WNW 06:00:59 65° SW 06:04:28 10° SE
STARLINK 1045 3.3 06:00:27 24° WNW 06:02:23 63° SW 06:05:52 10° SE
Okean 3 3.4 06:02:26 10° N 06:06:38 83° W 06:10:50 10° S
Cosmos 1733 Rocket 3.2 06:03:15 10° S 06:07:32 75° E 06:11:52 10° NNE
ATLAS CENTAUR R/B 3.8 06:05:10 10° N 06:07:43 15° NE 06:10:10 10° ENE
Meteor 1-19 Rocket 4.3 06:05:48 10° NNW 06:11:10 55° W 06:16:38 10° S
FALCON 9 DEB 4.1 06:11:13 16° WSW 06:11:46 17° SW 06:13:27 10° S
Cosmos 371 Rocket 3.4 06:08:04 10° SSW 06:12:54 84° ESE 06:17:47 10° NNE
SMAP 3.5 06:09:25 10° NNE 06:14:04 68° ESE 06:18:41 10° S
STARLINK 1027 3.7 06:13:15 19° W 06:14:50 33° SW 06:17:31 10° SSE
STARLINK 1028 3.7 06:13:28 18° W 06:15:04 32° SW 06:17:44 10° SSE
STARLINK 1021 3.7 06:13:41 18° W 06:15:18 32° SW 06:17:57 10° SSE
STARLINK 1019 3.7 06:13:51 18° W 06:15:30 32° SW 06:18:12 10° SSE
STARLINK 1012 3.7 06:14:07 18° W 06:15:44 32° SW 06:18:23 10° SSE
STARLINK 1010 3.7 06:14:19 18° W 06:15:57 32° SW 06:18:36 10° SSE
Cosmos 2026 Rocket 4.5 06:10:21 10° NNW 06:15:58 38° W 06:21:37 10° SSW
STARLINK 1026 3.8 06:14:32 18° W 06:16:10 32° SW 06:18:49 10° SSE
STARLINK 1013 3.8 06:14:46 18° W 06:16:24 31° SW 06:19:03 10° SSE
STARLINK 1009 3.8 06:14:58 18° W 06:16:37 31° SW 06:19:16 10° SSE
STARLINK 1015 3.8 06:15:10 18° W 06:16:50 31° SW 06:19:29 10° SSE
STARLINK 1016 3.8 06:15:24 17° W 06:17:05 31° SW 06:19:43 10° SSE
Cosmos 1869 Rocket 4.4 06:13:31 10° SW 06:17:10 26° WNW 06:20:50 10° NNW
STARLINK 1008 3.8 06:15:37 17° W 06:17:17 31° SW 06:19:56 10° SSE
Meteor 2-4 Rocket 3.6 06:11:57 10° NNW 06:17:28 77° W 06:22:49 10° S
STARLINK 1014 3.8 06:15:50 17° W 06:17:31 31° SW 06:20:08 10° SSE
STARLINK 1025 3.8 06:16:03 17° W 06:17:44 30° SW 06:20:22 10° SSE
Okean-O 4.2 06:13:36 10° NNE 06:17:47 39° E 06:21:54 10° SSE
STARLINK 1034 3.8 06:16:06 17° W 06:17:50 31° SW 06:20:29 10° SSE
STARLINK 1017 3.8 06:16:17 17° W 06:17:59 30° SW 06:20:36 10° SSE
STARLINK 1023 3.8 06:16:29 17° W 06:18:11 30° SW 06:20:49 10° SSE
STARLINK 1007 3.8 06:16:41 17° W 06:18:24 30° SW 06:21:01 10° SSE
FALCON 9 DEB 4.3 06:17:42 13° WSW 06:18:29 15° SW 06:19:56 10° S
STARLINK 1052 3.8 06:16:50 17° W 06:18:34 30° SW 06:21:11 10° SSE
STARLINK 1048 3.8 06:16:54 17° W 06:18:38 30° SW 06:21:14 10° SSE
STARLINK 1049 3.9 06:17:09 17° W 06:18:53 30° SW 06:21:29 10° SSE
STARLINK 1051 3.9 06:17:20 16° W 06:19:05 30° SW 06:21:41 10° SSE
STARLINK 1037 3.9 06:17:34 16° W 06:19:19 29° SW 06:21:55 10° SSE
STARLINK 1059 3.9 06:17:46 16° W 06:19:32 29° SW 06:22:07 10° SSE
Cosmos 44 3.1 06:14:50 10° SW 06:19:36 73° NW 06:24:09 10° NNE
STARLINK 1057 3.9 06:17:59 16° W 06:19:45 29° SW 06:22:21 10° SSE
Cosmos 1741 Rocket 4.3 06:14:45 10° NNW 06:19:45 48° WSW 06:24:44 10° S
STARLINK 1068 3.9 06:18:26 16° W 06:20:13 29° SW 06:22:48 10° SSE
STARLINK 1029 3.9 06:18:40 16° W 06:20:27 29° SW 06:23:01 10° SSE
STARLINK 1060 3.9 06:18:52 16° W 06:20:39 28° SW 06:23:13 10° SSE
PSLV R/B 3.4 06:19:03 14° WSW 06:20:51 38° S 06:23:10 10° ESE
STARLINK 1030 3.9 06:19:03 16° W 06:20:53 29° SW 06:23:29 10° SSE
STARLINK 1040 4.0 06:19:12 15° W 06:20:57 26° SW 06:23:28 10° SSE
STARLINK 1020 3.9 06:19:18 15° W 06:21:06 28° SW 06:23:40 10° SSE
STARLINK 1033 4.0 06:19:57 15° W 06:21:46 28° SW 06:24:20 10° SSE
Cosmos 1340 3.5 06:18:38 10° SW 06:21:56 29° WNW 06:25:15 10° NNW
STARLINK 1031 4.0 06:20:10 15° W 06:22:00 28° SW 06:24:33 10° SSE
STARLINK 1024 4.0 06:20:21 15° W 06:22:14 28° SW 06:24:49 10° SSE
STARLINK 1035 4.0 06:20:35 15° W 06:22:27 27° SW 06:25:00 10° SSE
STARLINK 1032 4.0 06:20:49 15° W 06:22:40 27° SW 06:25:13 10° SSE
CZ-4 R/B 4.3 06:19:54 10° NE 06:22:51 20° E 06:25:50 10° SE
STARLINK 1011 4.0 06:20:58 15° W 06:22:52 27° SW 06:25:27 10° SSE
ALOS 3.2 06:19:11 10° N 06:23:06 27° WNW 06:26:59 10° WSW
STARLINK 1036 4.0 06:21:15 15° W 06:23:07 27° SW 06:25:39 10° SSE
STARLINK 1047 4.0 06:21:40 14° W 06:23:33 27° SW 06:26:05 10° SSE
Cosmos 1500 3.1 06:21:21 10° SSW 06:25:11 76° W 06:29:02 10° N
Cosmos 2279 Rocket 4.2 06:19:52 10° SSW 06:25:50 49° WNW 06:31:51 10° N
Cosmos 1515 4.0 06:23:17 10° NNW 06:26:56 44° W 06:30:34 10° SSW
Envisat 4.2 06:22:04 10° NNE 06:26:59 47° E 06:31:52 10° S
IRS-1C Rocket 4.1 06:24:52 10° NNE 06:30:09 88° WNW 06:35:25 10° SSW
Cosmos 1452 Rocket 4.5 06:29:12 10° WSW 06:33:31 25° WNW 06:37:52 10° N
ADEOS Rocket 3.3 06:26:43 10° SSE 06:33:50 86° WSW 06:40:14 10° NNW
AQUARIUS 4.1 06:31:29 10° N 06:36:00 78° WNW 06:40:28 10° SSW
USA 234 4.1 06:30:54 10° NE 06:36:27 31° NNW 06:42:00 10° WNW
Cosmos 1674 Rocket 3.5 06:33:18 10° NNW 06:37:39 76° W 06:41:57 10° S
Cosmos 2263 Rocket 3.4 06:42:42 10° W 06:46:49 21° NW 06:50:56 10° N
Cosmos 1655 Rocket 4.3 06:40:58 10° NNW 06:46:50 45° W 06:52:41 10° SSW
